Wenatchee, WA

9:39 AM PDT on September 26, 2017 (GMT -0700)
Pangborn Memorial

Weather History for KEAT - November, 2012

Change the Weather History Date:

Wednesday, November 14, 2012

  Actual Average Record
Temperature  
Mean Temperature 34 °F 35 °F  
Max Temperature 36 °F 42 °F 61 °F (2010)
Min Temperature 31 °F 28 °F 13 °F (1985)
Degree Days  
Heating Degree Days 31 30  
Month to date heating degree days 373 390  
Since 1 July heating degree days 1172 1346  
Cooling Degree Days 0 0  
Month to date cooling degree days 0 0  
Year to date cooling degree days 294 249  
Moisture  
Dew Point 32 °F    
Average Humidity 82    
Maximum Humidity 87    
Minimum Humidity 75    
Precipitation  
Precipitation T in 0.07 in 0.35 in (1981)
Month to date precipitation 1.13 0.92  
Year to date precipitation 18.23 13.26  
Snow  
Snow 0.00 in 0.30 in - ()
Month to date snowfall 7.2 1.7  
Since 1 July snowfall 7.2 1.8  
Since 1 September snowfall 7.2 1.8  
Snow Depth 1.00 in    
Sea Level Pressure  
Sea Level Pressure 30.30 in    
Wind  
Wind Speed 3 mph (ESE)    
Max Wind Speed 7 mph    
Max Gust Speed -    
Visibility 9 miles    
Events      
T = Trace of Precipitation, MM = Missing Value Source: NWS Daily Summary

Daily Weather History Graph

Daily Weather History Graph

Search for Another Location

Airport or City:

Trip Planner

Search our weather history database for the weather conditions in past years. The results will help you decide how hot, cold, wet, or windy it might be!

Date:

Astronomy

Nov. 14, 2012 Rise Set
Actual Time 7:04 AM PST 4:25 PM PST
Civil Twilight 6:31 AM PST 4:58 PM PST
Nautical Twilight 5:54 AM PST 5:36 PM PST
Astronomical Twilight 5:17 AM PST 6:12 PM PST
Moon 8:04 AM PST (11/14) 5:14 PM PST (11/14)
Length of Visible Light 10h 27m
Length of Day
9h 20m
New Moon, 1% of the Moon is Illuminated
Nov 14
New Moon
Nov 20
First Quarter
Nov 28
Full
Dec 6
Last Quarter
Dec 13
New

Hourly Weather History & Observations

Time (PST) Temp. Windchill Dew Point Humidity Pressure Visibility Wind Dir Wind Speed Gust Speed Precip Events Conditions
12:55 AM 37.0 °F 32.4 °F 30.9 °F 79% 30.22 in 10.0 mi NW 5.8 mph - N/A   Overcast
1:55 AM 37.0 °F 34.5 °F 30.9 °F 79% 30.22 in 9.0 mi NW 3.5 mph - N/A   Overcast
2:55 AM 37.0 °F - 30.9 °F 79% 30.21 in 8.0 mi Calm Calm - N/A   Overcast
3:55 AM 37.0 °F - 30.9 °F 79% 30.21 in 8.0 mi Calm Calm - N/A   Overcast
4:14 AM 37.4 °F - 30.2 °F 75% 30.18 in 8.0 mi Calm Calm - N/A   Overcast
4:55 AM 36.0 °F - 30.9 °F 82% 30.22 in 10.0 mi Calm Calm - N/A   Overcast
5:55 AM 36.0 °F - 30.9 °F 82% 30.23 in 10.0 mi Calm Calm - N/A   Overcast
6:55 AM 36.0 °F - 32.0 °F 86% 30.24 in 9.0 mi Calm Calm - N/A   Overcast
7:55 AM 36.0 °F - 30.9 °F 82% 30.26 in 10.0 mi Calm Calm - N/A   Overcast
8:55 AM 37.0 °F - 32.0 °F 82% 30.27 in 8.0 mi Calm Calm - N/A   Overcast
9:55 AM 37.0 °F - 32.0 °F 82% 30.29 in 9.0 mi Calm Calm - N/A   Overcast
10:55 AM 37.9 °F - 33.1 °F 83% 30.30 in 9.0 mi Calm Calm - N/A   Overcast
11:55 AM 37.9 °F 32.7 °F 33.1 °F 83% 30.31 in 6.0 mi ESE 6.9 mph - N/A   Haze
12:55 PM 37.9 °F 35.5 °F 33.1 °F 83% 30.31 in 6.0 mi Variable 3.5 mph - N/A   Haze
1:55 PM 37.9 °F 34.4 °F 33.1 °F 83% 30.31 in 8.0 mi ESE 4.6 mph - N/A   Overcast
2:55 PM 37.9 °F 33.5 °F 33.1 °F 83% 30.31 in 9.0 mi SE 5.8 mph - N/A   Overcast
3:55 PM 37.9 °F 33.5 °F 33.1 °F 83% 30.33 in 8.0 mi SE 5.8 mph - N/A   Overcast
4:55 PM 37.0 °F 33.3 °F 32.0 °F 82% 30.34 in 10.0 mi ESE 4.6 mph - N/A   Overcast
5:55 PM 37.9 °F 35.5 °F 33.1 °F 83% 30.35 in 9.0 mi East 3.5 mph - N/A   Overcast
6:55 PM 37.0 °F 34.5 °F 33.1 °F 86% 30.36 in 9.0 mi ESE 3.5 mph - N/A   Overcast
7:46 PM 37.4 °F 32.8 °F 33.8 °F 87% 30.33 in 9.0 mi ESE 5.8 mph - N/A   Overcast
7:55 PM 37.0 °F 33.3 °F 33.1 °F 86% 30.37 in 10.0 mi SE 4.6 mph - N/A   Overcast
8:55 PM 37.0 °F 32.4 °F 33.1 °F 86% 30.38 in 10.0 mi SE 5.8 mph - N/A   Overcast
9:55 PM 37.0 °F 32.4 °F 32.0 °F 82% 30.38 in 10.0 mi SSE 5.8 mph - N/A   Overcast
10:07 PM 37.4 °F 34.9 °F 32.0 °F 81% 30.35 in 10.0 mi SE 3.5 mph - N/A   Overcast
10:55 PM 37.0 °F 34.5 °F 32.0 °F 82% 30.38 in 10.0 mi East 3.5 mph - N/A   Overcast
11:55 PM 37.0 °F - 32.0 °F 82% 30.38 in 7.0 mi Calm Calm - N/A   Overcast